Tracking 28790 objects as of 19-Apr-2024
HD Live streaming from Space Station
objects crossing your sky now

SL-8 DEB

Track SL-8 DEB now!
10-day predictions


NORAD ID: 15490
Int'l Code: 1985-006C
Perigee: 704.3 km
Apogee: 707.2 km
Inclination: 74.0 °
Period: 98.7 minutes
Semi major axis: 7076 km
RCS: 0.0113 m2 (small)
Launch date: January 17, 1985
Source: Commonwealth of Independent States (former USSR) (CIS)
Launch site: PLESETSK MISSILE AND SPACE COMPLEX (PKMTR)

Note: This is SATELLITE DEBRIS
Your satellite tracking list
Your tracking list is empty




NASA's NSSDC Master Catalog

Two Line Element Set (TLE):
1 15490U 85006C   24109.24830944  .00007384  00000-0  16007-2 0  9996
2 15490  74.0344  47.6213 0002049 350.8555   9.2572 14.58312982 68116
Source of the keplerian elements: AFSPC